[ hide orbit diagram ]
For accurate long-term ephemerides, please instead use our Horizons system.This orbit viewer was implemented using two-body methods, and hence should not be used for determining accurate long-term trajectories (over several years or decades) or planetary encounter circumstances.
Orbital Elements at Epoch 2459000.5 (2020-May-31.0) TDB
Reference: JPL 8 (heliocentric ecliptic J2000)
Element | Value | Uncertainty (1-sigma) | Units |
e | .1121426872847895 | 7.9347e-08 | |
a | 2.781819047172398 | 3.3126e-08 | au |
q | 2.469858383682472 | 2.3076e-07 | au |
i | 3.749500012593807 | 8.6642e-06 | deg |
node | 186.7493042123093 | 0.00012063 | deg |
peri | 174.9739025885219 | 0.00012658 | deg |
M | 268.6566877627477 | 4.0394e-05 | deg |
tp | 2459430.497565165925 (2021-Aug-03.99756517) | 0.00019409 | TDB |
period | 1694.695754601742 4.64 | 3.0271e-05 8.288e-08 | d yr |
n | .2124275103790537 | 3.7944e-09 | deg/d |
Q | 3.093779710662323 | 3.6841e-08 | au |
|
| | Orbit Determination Parameters
Additional Information
|
[ show covariance matrix ]
Physical Parameter Table
Parameter |
Symbol |
Value |
Units |
Sigma |
Reference |
Notes |
absolute magnitude |
H |
16.7 |
|
n/a |
MPO471541 |
|
|
341361 (2007 TP73) Discovered 2007-Oct-07 by Charleston at Charleston |
Reference: 20121029/Numbers.arc | Last Updated: 2012-11-08 |
|
|